| time (UTC) | temp F | wind direction | speed MPH | gust MPH | rain 1hr in | rain 24hr in | rain mn in | humidity % | barometer mb |
| 20260506071011 | 46 | 203 | 0.0 | 0.0 | 0.00 | 0.00 | 0.00 | 99 | 1014.9 |
| 20260506070508 | 46 | 203 | 0.0 | 0.0 | 0.00 | 0.00 | 0.00 | 99 | 1014.7 |
| 20260506062445 | 46 | 346 | 0.0 | 0.0 | 0.00 | 0.12 | 0.12 | 99 | 1014.3 |
| 20260506061941 | 46 | 346 | 0.0 | 0.0 | 0.00 | 0.12 | 0.12 | 99 | 1014.4 |
| 20260506061438 | 46 | 173 | 0.0 | 0.0 | 0.00 | 0.12 | 0.12 | 99 | 1014.4 |
| 20260506060936 | 46 | 173 | 0.0 | 0.0 | 0.00 | 0.12 | 0.12 | 99 | 1014.4 |
| 20260506060434 | 46 | 173 | 0.0 | 0.0 | 0.00 | 0.12 | 0.12 | 99 | 1014.1 |
| 20260506051406 | 46 | 206 | 0.0 | 0.0 | 0.00 | 0.12 | 0.12 | 99 | 1013.6 |
| 20260506050903 | 46 | 206 | 0.0 | 0.0 | 0.00 | 0.12 | 0.12 | 99 | 1014.0 |
| 20260506050400 | 46 | 206 | 0.0 | 0.0 | 0.00 | 0.12 | 0.12 | 99 | 1014.1 |
| 20260506044851 | 46 | 334 | 0.0 | 0.0 | 0.00 | 0.12 | 0.12 | 99 | 1013.6 |
| 20260506044349 | 46 | 334 | 0.0 | 2.0 | 0.00 | 0.12 | 0.12 | 99 | 1013.7 |
| 20260506043845 | 46 | 334 | 1.0 | 2.0 | 0.07 | 0.12 | 0.12 | 99 | 1014.0 |
| 20260506043343 | 46 | 203 | 0.0 | 0.0 | 0.07 | 0.12 | 0.12 | 99 | 1013.8 |
| 20260506042841 | 46 | 203 | 1.0 | 1.0 | 0.00 | 0.11 | 0.11 | 99 | 1013.6 |
| 20260506042340 | 46 | 340 | 0.0 | 0.0 | 0.00 | 0.11 | 0.11 | 99 | 1013.5 |
| 20260506041838 | 46 | 340 | 0.0 | 0.0 | 0.00 | 0.11 | 0.11 | 99 | 1013.6 |
| 20260506041335 | 46 | 346 | 1.0 | 1.0 | 0.00 | 0.11 | 0.11 | 99 | 1013.4 |
| 20260506040832 | 46 | 340 | 0.0 | 0.0 | 0.00 | 0.11 | 0.11 | 99 | 1013.2 |
| 20260506040329 | 46 | 234 | 0.0 | 0.0 | 0.00 | 0.11 | 0.11 | 99 | 1013.2 |
| 20260506035825 | 46 | 234 | 0.0 | 0.0 | 0.00 | 0.11 | 0.11 | 99 | 1013.4 |
| 20260506035323 | 46 | 234 | 0.0 | 1.0 | 0.00 | 0.11 | 0.11 | 99 | 1013.3 |
| 20260506034820 | 46 | 331 | 0.0 | 2.0 | 0.00 | 0.11 | 0.11 | 99 | 1013.3 |
| 20260506034317 | 46 | 246 | 0.0 | 0.0 | 0.00 | 0.11 | 0.11 | 99 | 1012.9 |
| 20260506033814 | 46 | 340 | 0.0 | 2.0 | 0.00 | 0.11 | 0.11 | 99 | 1013.1 |
| 20260506033311 | 46 | 261 | 0.0 | 0.0 | 0.00 | 0.11 | 0.11 | 99 | 1013.1 |
| 20260506032808 | 47 | 240 | 0.0 | 1.0 | 0.00 | 0.11 | 0.11 | 99 | 1012.7 |
| 20260506032306 | 46 | 340 | 0.0 | 3.0 | 0.00 | 0.11 | 0.11 | 99 | 1012.6 |
| 20260506031801 | 46 | 8 | 0.0 | 0.0 | 0.00 | 0.11 | 0.11 | 99 | 1012.4 |
| 20260506031259 | 47 | 8 | 0.0 | 0.0 | 0.00 | 0.11 | 0.11 | 99 | 1012.5 |
| 20260506030757 | 47 | 8 | 0.0 | 0.0 | 0.00 | 0.11 | 0.11 | 99 | 1012.5 |
| 20260506030254 | 47 | 8 | 0.0 | 0.0 | 0.00 | 0.11 | 0.11 | 99 | 1012.5 |
| 20260506025751 | 47 | 10 | 2.0 | 2.0 | 0.00 | 0.11 | 0.11 | 99 | 1012.6 |
| 20260506025247 | 47 | 352 | 0.0 | 0.0 | 0.00 | 0.11 | 0.11 | 99 | 1012.3 |
| 20260506024744 | 47 | 352 | 0.0 | 0.0 | 0.00 | 0.11 | 0.11 | 99 | 1012.6 |
| 20260506024241 | 47 | 352 | 0.0 | 0.0 | 0.00 | 0.11 | 0.11 | 99 | 1012.5 |
| 20260506023737 | 47 | 331 | 0.0 | 0.0 | 0.00 | 0.11 | 0.11 | 99 | 1012.3 |
| 20260506023234 | 47 | 331 | 0.0 | 0.0 | 0.00 | 0.11 | 0.11 | 99 | 1012.3 |
| 20260506022731 | 47 | 331 | 0.0 | 0.0 | 0.00 | 0.11 | 0.11 | 99 | 1012.4 |
| 20260506022229 | 47 | 331 | 0.0 | 2.0 | 0.00 | 0.11 | 0.11 | 99 | 1012.2 |
| 20260506021727 | 47 | 162 | 1.0 | 2.0 | 0.00 | 0.11 | 0.11 | 99 | 1012.2 |
| 20260506021223 | 47 | 345 | 0.0 | 2.0 | 0.00 | 0.11 | 0.11 | 99 | 1012.3 |
| 20260506020720 | 46 | 352 | 0.0 | 0.0 | 0.00 | 0.11 | 0.11 | 99 | 1011.9 |
| 20260506020218 | 46 | 14 | 0.0 | 0.0 | 0.00 | 0.11 | 0.11 | 99 | 1011.9 |
| 20260506015715 | 46 | 14 | 0.0 | 1.0 | 0.00 | 0.11 | 0.11 | 99 | 1012.2 |
| 20260506015213 | 46 | 15 | 0.0 | 0.0 | 0.00 | 0.11 | 0.11 | 99 | 1012.2 |
| 20260506014710 | 46 | 15 | 0.0 | 0.0 | 0.00 | 0.11 | 0.11 | 99 | 1012.0 |
| 20260506014206 | 46 | 270 | 0.0 | 0.0 | 0.00 | 0.11 | 0.11 | 99 | 1012.3 |
| 20260506013703 | 47 | 270 | 0.0 | 1.0 | 0.00 | 0.11 | 0.11 | 99 | 1012.4 |
| 20260506013200 | 47 | 352 | 0.0 | 1.0 | 0.00 | 0.11 | 0.11 | 99 | 1012.3 |
| 20260506012656 | 47 | 345 | 0.0 | 0.0 | 0.00 | 0.11 | 0.11 | 99 | 1012.0 |
| 20260506012153 | 47 | 337 | 0.0 | 0.0 | 0.00 | 0.11 | 0.11 | 99 | 1012.2 |
| 20260506011651 | 47 | 337 | 0.0 | 1.0 | 0.00 | 0.11 | 0.11 | 99 | 1012.0 |
| 20260506011147 | 47 | 337 | 0.0 | 0.0 | 0.00 | 0.11 | 0.11 | 99 | 1011.8 |
| 20260506010646 | 47 | 337 | 1.0 | 1.0 | 0.00 | 0.11 | 0.11 | 99 | 1012.0 |
| 20260506010143 | 46 | 0 | 0.0 | 0.0 | 0.00 | 0.11 | 0.11 | 99 | 1011.6 |
| 20260506005639 | 46 | 0 | 0.0 | 0.0 | 0.00 | 0.11 | 0.11 | 99 | 1011.6 |
| 20260506005136 | 46 | 0 | 0.0 | 0.0 | 0.00 | 0.11 | 0.11 | 99 | 1011.8 |
| 20260506004632 | 46 | 0 | 0.0 | 0.0 | 0.00 | 0.11 | 0.11 | 99 | 1011.7 |
| 20260506004130 | 46 | 0 | 0.0 | 0.0 | 0.00 | 0.11 | 0.11 | 99 | 1011.7 |
| 20260506003626 | 46 | 0 | 0.0 | 0.0 | 0.00 | 0.11 | 0.11 | 99 | 1011.8 |
| 20260506003122 | 46 | 0 | 0.0 | 0.0 | 0.00 | 0.11 | 0.11 | 99 | 1011.7 |
| 20260506002618 | 46 | 0 | 0.0 | 0.0 | 0.00 | 0.11 | 0.11 | 99 | 1011.8 |
| 20260506002114 | 46 | 278 | 0.0 | 0.0 | 0.00 | 0.11 | 0.11 | 99 | 1011.8 |
| 20260506001610 | 46 | 278 | 0.0 | 0.0 | 0.00 | 0.11 | 0.11 | 99 | 1011.6 |
| 20260506001108 | 46 | 294 | 1.0 | 1.0 | 0.00 | 0.11 | 0.11 | 99 | 1011.8 |
| 20260506000605 | 46 | 331 | 0.0 | 2.0 | 0.00 | 0.11 | 0.11 | 99 | 1011.7 |
| 20260505235601 | 46 | 355 | 0.0 | 2.0 | 0.00 | 0.11 | 0.11 | 99 | 1011.6 |
| 20260505235057 | 46 | 0 | 2.0 | 4.0 | 0.00 | 0.11 | 0.11 | 99 | 1011.5 |
| 20260505234554 | 46 | 337 | 0.0 | 1.0 | 0.00 | 0.11 | 0.11 | 99 | 1011.5 |
| 20260505234050 | 46 | 6 | 0.0 | 0.0 | 0.00 | 0.11 | 0.11 | 99 | 1011.5 |
| 20260505233549 | 46 | 6 | 0.0 | 1.0 | 0.00 | 0.11 | 0.11 | 99 | 1011.5 |
| 20260505233046 | 46 | 356 | 2.0 | 2.0 | 0.00 | 0.11 | 0.11 | 99 | 1011.4 |
| 20260505232543 | 46 | 0 | 0.0 | 2.0 | 0.00 | 0.11 | 0.11 | 99 | 1011.7 |
| 20260505232041 | 46 | 0 | 0.0 | 1.0 | 0.00 | 0.11 | 0.11 | 99 | 1011.5 |
| 20260505231537 | 46 | 325 | 0.0 | 2.0 | 0.00 | 0.11 | 0.11 | 99 | 1011.4 |
| 20260505231036 | 46 | 240 | 1.0 | 2.0 | 0.00 | 0.11 | 0.11 | 99 | 1011.6 |
| 20260505230533 | 46 | 251 | 1.0 | 1.0 | 0.00 | 0.11 | 0.11 | 99 | 1011.5 |
| 20260505230030 | 46 | 353 | 0.0 | 2.0 | 0.00 | 0.11 | 0.11 | 99 | 1011.5 |
| 20260505225526 | 46 | 251 | 1.0 | 2.0 | 0.00 | 0.11 | 0.11 | 99 | 1011.6 |
| 20260505225022 | 46 | 0 | 1.0 | 1.0 | 0.00 | 0.11 | 0.11 | 99 | 1011.4 |
| 20260505224520 | 46 | 354 | 1.0 | 2.0 | 0.00 | 0.11 | 0.11 | 99 | 1011.4 |
| 20260505224017 | 46 | 330 | 0.0 | 2.0 | 0.00 | 0.11 | 0.11 | 99 | 1011.7 |
| 20260505223514 | 46 | 356 | 2.0 | 2.0 | 0.00 | 0.11 | 0.11 | 99 | 1011.5 |
| 20260505223010 | 46 | 354 | 1.0 | 2.0 | 0.00 | 0.11 | 0.11 | 99 | 1011.7 |
| 20260505222506 | 46 | 7 | 1.0 | 1.0 | 0.00 | 0.11 | 0.11 | 99 | 1011.5 |
| 20260505222002 | 46 | 354 | 0.0 | 2.0 | 0.00 | 0.11 | 0.11 | 99 | 1011.5 |
| 20260505221500 | 46 | 254 | 0.0 | 2.0 | 0.00 | 0.11 | 0.11 | 99 | 1011.6 |
| 20260505220957 | 46 | 300 | 0.0 | 1.0 | 0.00 | 0.11 | 0.11 | 99 | 1011.5 |
| 20260505220453 | 46 | 348 | 0.0 | 2.0 | 0.00 | 0.11 | 0.11 | 99 | 1011.6 |
| 20260505215951 | 46 | 215 | 0.0 | 0.0 | 0.00 | 0.11 | 0.11 | 99 | 1011.6 |
| 20260505215449 | 46 | 209 | 0.0 | 2.0 | 0.00 | 0.11 | 0.11 | 99 | 1011.6 |
| 20260505214947 | 46 | 270 | 0.0 | 1.0 | 0.00 | 0.11 | 0.11 | 99 | 1011.6 |
| 20260505214444 | 46 | 300 | 0.0 | 2.0 | 0.00 | 0.11 | 0.11 | 99 | 1011.7 |
| 20260505213941 | 46 | 343 | 3.0 | 3.0 | 0.00 | 0.11 | 0.11 | 99 | 1011.6 |
| 20260505213439 | 46 | 334 | 0.0 | 2.0 | 0.00 | 0.11 | 0.11 | 99 | 1011.7 |
| 20260505212935 | 46 | 294 | 0.0 | 3.0 | 0.00 | 0.11 | 0.11 | 99 | 1011.6 |
| 20260505212432 | 45 | 338 | 0.0 | 6.0 | 0.00 | 0.11 | 0.11 | 99 | 1011.7 |
| 20260505211928 | 45 | 353 | 1.0 | 1.0 | 0.00 | 0.11 | 0.11 | 99 | 1011.7 |
| 20260505211426 | 45 | 15 | 2.0 | 2.0 | 0.00 | 0.11 | 0.11 | 99 | 1011.8 |
| 20260505210922 | 45 | 340 | 0.0 | 1.0 | 0.00 | 0.11 | 0.11 | 99 | 1011.9 |
| 20260505210420 | 45 | 4 | 2.0 | 3.0 | 0.00 | 0.11 | 0.11 | 99 | 1011.6 |
| 20260505205916 | 45 | 346 | 3.0 | 3.0 | 0.00 | 0.11 | 0.11 | 99 | 1011.5 |
| 20260505205415 | 46 | 294 | 1.0 | 2.0 | 0.00 | 0.11 | 0.11 | 99 | 1011.7 |
| 20260505204911 | 46 | 243 | 0.0 | 2.0 | 0.00 | 0.11 | 0.11 | 99 | 1011.4 |
| 20260505204409 | 46 | 270 | 1.0 | 2.0 | 0.00 | 0.11 | 0.11 | 99 | 1011.6 |
| 20260505203906 | 46 | 283 | 0.0 | 1.0 | 0.00 | 0.11 | 0.11 | 99 | 1011.3 |
| 20260505203402 | 45 | 337 | 0.0 | 1.0 | 0.00 | 0.11 | 0.11 | 99 | 1011.5 |
| 20260505202859 | 45 | 254 | 2.0 | 2.0 | 0.00 | 0.11 | 0.11 | 99 | 1011.5 |
| 20260505202355 | 45 | 0 | 1.0 | 3.0 | 0.00 | 0.11 | 0.11 | 99 | 1011.5 |
| 20260505201852 | 45 | 351 | 3.0 | 3.0 | 0.00 | 0.11 | 0.11 | 99 | 1011.6 |
| 20260505201349 | 45 | 254 | 0.0 | 1.0 | 0.00 | 0.11 | 0.11 | 99 | 1011.5 |
| 20260505200847 | 45 | 0 | 1.0 | 2.0 | 0.00 | 0.11 | 0.11 | 99 | 1011.3 |
| 20260505200344 | 45 | 0 | 0.0 | 2.0 | 0.00 | 0.11 | 0.11 | 99 | 1011.5 |
| 20260505195839 | 45 | 354 | 0.0 | 3.0 | 0.00 | 0.11 | 0.11 | 99 | 1011.7 |
| 20260505195337 | 45 | 0 | 1.0 | 3.0 | 0.00 | 0.11 | 0.11 | 99 | 1011.1 |
| 20260505194834 | 45 | 346 | 1.0 | 2.0 | 0.00 | 0.11 | 0.11 | 99 | 1011.5 |
| 20260505194331 | 45 | 0 | 0.0 | 3.0 | 0.00 | 0.11 | 0.11 | 99 | 1011.5 |
| 20260505193826 | 45 | 348 | 0.0 | 1.0 | 0.00 | 0.11 | 0.11 | 99 | 1011.5 |
| 20260505193324 | 45 | 337 | 0.0 | 2.0 | 0.00 | 0.11 | 0.11 | 99 | 1011.5 |
| 20260505192822 | 45 | 306 | 1.0 | 2.0 | 0.00 | 0.11 | 0.11 | 99 | 1011.5 |
| 20260505192320 | 45 | 324 | 0.0 | 2.0 | 0.00 | 0.11 | 0.11 | 99 | 1011.3 |
| 20260505191817 | 45 | 353 | 1.0 | 3.0 | 0.00 | 0.11 | 0.11 | 99 | 1011.5 |
| 20260505191316 | 45 | 340 | 1.0 | 3.0 | 0.00 | 0.11 | 0.11 | 99 | 1011.6 |
| 20260505190812 | 45 | 262 | 0.0 | 2.0 | 0.00 | 0.11 | 0.11 | 99 | 1011.4 |
| 20260505190308 | 45 | 275 | 0.0 | 2.0 | 0.00 | 0.11 | 0.11 | 99 | 1011.1 |
| 20260505185804 | 45 | 254 | 0.0 | 2.0 | 0.00 | 0.11 | 0.11 | 99 | 1011.5 |
| 20260505185300 | 45 | 344 | 0.0 | 2.0 | 0.00 | 0.11 | 0.11 | 99 | 1011.1 |
| 20260505184756 | 45 | 0 | 0.0 | 1.0 | 0.00 | 0.11 | 0.11 | 99 | 1011.3 |
| 20260505184254 | 45 | 246 | 0.0 | 0.0 | 0.00 | 0.11 | 0.11 | 99 | 1011.4 |
| 20260505183751 | 45 | 286 | 0.0 | 1.0 | 0.00 | 0.11 | 0.11 | 99 | 1011.3 |
| 20260505183248 | 44 | 98 | 0.0 | 1.0 | 0.00 | 0.11 | 0.11 | 99 | 1011.5 |
| 20260505182744 | 45 | 195 | 0.0 | 1.0 | 0.00 | 0.11 | 0.11 | 99 | 1011.3 |
| 20260505182241 | 44 | 180 | 0.0 | 0.0 | 0.00 | 0.11 | 0.11 | 99 | 1011.3 |
| 20260505181737 | 44 | 270 | 0.0 | 1.0 | 0.00 | 0.11 | 0.11 | 99 | 1011.0 |
| 20260505181235 | 44 | 345 | 0.0 | 1.0 | 0.00 | 0.11 | 0.11 | 99 | 1011.1 |
| 20260505180731 | 44 | 346 | 0.0 | 2.0 | 0.00 | 0.11 | 0.11 | 99 | 1011.1 |
| 20260505180228 | 45 | 294 | 0.0 | 1.0 | 0.00 | 0.11 | 0.11 | 99 | 1011.1 |
| 20260505175724 | 44 | 278 | 0.0 | 2.0 | 0.00 | 0.11 | 0.11 | 99 | 1010.8 |
| 20260505175221 | 44 | 6 | 0.0 | 1.0 | 0.00 | 0.11 | 0.11 | 99 | 1011.3 |
| 20260505174718 | 44 | 286 | 0.0 | 2.0 | 0.00 | 0.11 | 0.11 | 99 | 1011.0 |
| 20260505174215 | 44 | 345 | 0.0 | 1.0 | 0.00 | 0.11 | 0.11 | 99 | 1010.8 |
| 20260505173710 | 44 | 346 | 0.0 | 3.0 | 0.00 | 0.11 | 0.11 | 99 | 1010.9 |
| 20260505173207 | 44 | 331 | 0.0 | 1.0 | 0.00 | 0.11 | 0.11 | 99 | 1010.9 |
| 20260505172705 | 44 | 346 | 0.0 | 1.0 | 0.00 | 0.11 | 0.11 | 99 | 1010.8 |
| 20260505172201 | 44 | 7 | 0.0 | 1.0 | 0.00 | 0.11 | 0.11 | 99 | 1010.7 |
| 20260505171701 | 44 | 353 | 0.0 | 2.0 | 0.00 | 0.11 | 0.11 | 99 | 1010.7 |
| 20260505171158 | 44 | 12 | 1.0 | 2.0 | 0.00 | 0.11 | 0.11 | 99 | 1010.6 |
| 20260505170655 | 44 | 289 | 0.0 | 0.0 | 0.00 | 0.11 | 0.11 | 99 | 1010.5 |
| 20260505170152 | 44 | 240 | 0.0 | 0.0 | 0.00 | 0.11 | 0.11 | 99 | 1010.7 |
| 20260505165652 | 44 | 270 | 0.0 | 2.0 | 0.00 | 0.11 | 0.11 | 99 | 1010.6 |
| 20260505165148 | 44 | 354 | 1.0 | 1.0 | 0.00 | 0.11 | 0.11 | 99 | 1010.6 |
| 20260505164644 | 44 | 270 | 0.0 | 1.0 | 0.00 | 0.11 | 0.11 | 99 | 1010.8 |
| 20260505164142 | 44 | 291 | 0.0 | 1.0 | 0.00 | 0.11 | 0.11 | 99 | 1010.4 |
| 20260505163640 | 44 | 0 | 0.0 | 1.0 | 0.00 | 0.11 | 0.11 | 99 | 1010.6 |
| 20260505163138 | 44 | 355 | 1.0 | 1.0 | 0.00 | 0.11 | 0.11 | 99 | 1010.7 |
| 20260505162634 | 44 | 337 | 1.0 | 2.0 | 0.00 | 0.11 | 0.11 | 99 | 1010.6 |
| 20260505162132 | 44 | 0 | 0.0 | 0.0 | 0.00 | 0.11 | 0.11 | 99 | 1010.6 |
| 20260505161629 | 43 | 0 | 0.0 | 0.0 | 0.00 | 0.11 | 0.11 | 99 | 1010.7 |
| 20260505161126 | 43 | 97 | 0.0 | 0.0 | 0.00 | 0.11 | 0.11 | 99 | 1010.7 |
| 20260505160624 | 43 | 97 | 0.0 | 0.0 | 0.00 | 0.11 | 0.11 | 99 | 1010.6 |
| 20260505160121 | 43 | 97 | 0.0 | 0.0 | 0.00 | 0.11 | 0.11 | 99 | 1010.5 |
| 20260505153101 | 43 | 82 | 1.0 | 1.0 | 0.00 | 0.11 | 0.11 | 99 | 1010.5 |
| 20260505152557 | 42 | 90 | 0.0 | 1.0 | 0.00 | 0.11 | 0.11 | 99 | 1010.4 |
| 20260505152053 | 42 | 90 | 0.0 | 0.0 | 0.00 | 0.11 | 0.11 | 99 | 1010.4 |
| 20260505151548 | 42 | 90 | 0.0 | 1.0 | 0.00 | 0.11 | 0.11 | 99 | 1010.5 |
| 20260505151046 | 42 | 20 | 0.0 | 1.0 | 0.00 | 0.11 | 0.11 | 99 | 1010.5 |
| 20260505150542 | 42 | 66 | 0.0 | 1.0 | 0.00 | 0.11 | 0.11 | 99 | 1010.2 |
| 20260505140507 | 40 | 123 | 0.0 | 0.0 | 0.00 | 0.11 | 0.11 | 99 | 1009.9 |
| 20260505124921 | 40 | 114 | 0.0 | 0.0 | 0.00 | 0.11 | 0.11 | 98 | 1009.8 |
| 20260505124418 | 39 | 114 | 0.0 | 0.0 | 0.00 | 0.11 | 0.11 | 98 | 1009.6 |
| 20260505123914 | 39 | 114 | 0.0 | 0.0 | 0.00 | 0.11 | 0.11 | 98 | 1009.9 |
| 20260505123410 | 39 | 114 | 0.0 | 0.0 | 0.00 | 0.11 | 0.11 | 98 | 1009.6 |
| 20260505122906 | 39 | 114 | 0.0 | 0.0 | 0.00 | 0.11 | 0.11 | 98 | 1009.9 |
| 20260505122404 | 39 | 114 | 0.0 | 0.0 | 0.00 | 0.11 | 0.11 | 98 | 1009.6 |
| 20260505121900 | 39 | 114 | 0.0 | 0.0 | 0.00 | 0.11 | 0.11 | 98 | 1009.6 |
| 20260505121357 | 39 | 114 | 0.0 | 0.0 | 0.00 | 0.11 | 0.11 | 98 | 1009.6 |
| 20260505120853 | 39 | 114 | 0.0 | 0.0 | 0.00 | 0.11 | 0.11 | 98 | 1009.6 |
| 20260505120350 | 39 | 114 | 0.0 | 0.0 | 0.00 | 0.11 | 0.11 | 98 | 1009.7 |
| 20260505115848 | 39 | 115 | 0.0 | 2.0 | 0.00 | 0.11 | 0.11 | 98 | 1009.5 |
| 20260505115346 | 39 | 127 | 2.0 | 2.0 | 0.00 | 0.11 | 0.11 | 98 | 1009.3 |
| 20260505114844 | 39 | 151 | 0.0 | 1.0 | 0.00 | 0.11 | 0.11 | 98 | 1009.6 |
| 20260505114340 | 39 | 105 | 0.0 | 1.0 | 0.00 | 0.11 | 0.11 | 98 | 1009.7 |
| 20260505113836 | 39 | 120 | 0.0 | 0.0 | 0.00 | 0.11 | 0.11 | 98 | 1009.6 |
| 20260505113333 | 39 | 120 | 0.0 | 0.0 | 0.00 | 0.11 | 0.11 | 98 | 1009.2 |
| 20260505112828 | 39 | 120 | 0.0 | 1.0 | 0.00 | 0.11 | 0.11 | 98 | 1009.7 |
| 20260505112326 | 39 | 105 | 0.0 | 0.0 | 0.00 | 0.11 | 0.11 | 98 | 1009.8 |
| 20260505111821 | 39 | 105 | 0.0 | 1.0 | 0.00 | 0.11 | 0.11 | 98 | 1009.6 |
| 20260505111317 | 39 | 173 | 0.0 | 2.0 | 0.00 | 0.11 | 0.11 | 98 | 1009.7 |
| 20260505110814 | 39 | 157 | 0.0 | 1.0 | 0.00 | 0.11 | 0.11 | 98 | 1009.8 |
| 20260505110311 | 39 | 165 | 0.0 | 1.0 | 0.00 | 0.11 | 0.11 | 98 | 1009.8 |
| 20260505101745 | 40 | 180 | 0.0 | 0.0 | 0.00 | 0.11 | 0.11 | 98 | 1009.7 |
| 20260505101241 | 40 | 180 | 0.0 | 0.0 | 0.00 | 0.11 | 0.11 | 98 | 1009.7 |
| 20260505100738 | 40 | 180 | 0.0 | 0.0 | 0.00 | 0.11 | 0.11 | 98 | 1009.8 |
| 20260505100234 | 40 | 180 | 0.0 | 0.0 | 0.00 | 0.11 | 0.11 | 98 | 1009.9 |
| 20260505095729 | 40 | 194 | 1.0 | 1.0 | 0.00 | 0.11 | 0.11 | 98 | 1010.2 |
| 20260505095228 | 41 | 180 | 0.0 | 1.0 | 0.00 | 0.11 | 0.11 | 98 | 1010.4 |
| 20260505094723 | 41 | 117 | 0.0 | 2.0 | 0.05 | 0.11 | 0.11 | 98 | 1010.0 |
| 20260505094220 | 41 | 109 | 0.0 | 0.0 | 0.05 | 0.11 | 0.11 | 98 | 1010.0 |
| 20260505093716 | 41 | 215 | 0.0 | 1.0 | 0.00 | 0.10 | 0.10 | 98 | 1010.1 |
| 20260505093214 | 41 | 209 | 0.0 | 0.0 | 0.00 | 0.10 | 0.10 | 98 | 1010.1 |
| 20260505092710 | 41 | 126 | 0.0 | 1.0 | 0.00 | 0.10 | 0.10 | 98 | 1010.2 |
| 20260505092209 | 41 | 111 | 0.0 | 1.0 | 0.00 | 0.10 | 0.10 | 98 | 1010.2 |
| 20260505091706 | 41 | 114 | 0.0 | 1.0 | 0.00 | 0.10 | 0.10 | 98 | 1010.1 |
| 20260505091204 | 41 | 117 | 0.0 | 0.0 | 0.00 | 0.10 | 0.10 | 98 | 1010.2 |
| 20260505090701 | 41 | 117 | 0.0 | 0.0 | 0.07 | 0.10 | 0.10 | 98 | 1010.0 |
| 20260505090159 | 41 | 117 | 0.0 | 0.0 | 0.19 | 0.10 | 0.10 | 98 | 1010.2 |
| 20260505085657 | 41 | 117 | 0.0 | 0.0 | 0.12 | 0.08 | 0.08 | 98 | 1010.0 |
| 20260505085155 | 41 | 117 | 0.0 | 0.0 | 0.12 | 0.07 | 0.07 | 98 | 1010.2 |
| 20260505084652 | 41 | 117 | 0.0 | 0.0 | 0.05 | 0.06 | 0.06 | 98 | 1010.4 |
| 20260505084150 | 41 | 117 | 0.0 | 0.0 | 0.00 | 0.05 | 0.05 | 98 | 1010.5 |
| 20260505083647 | 41 | 117 | 0.0 | 0.0 | 0.07 | 0.05 | 0.05 | 98 | 1010.2 |
| 20260505083144 | 41 | 117 | 0.0 | 1.0 | 0.12 | 0.05 | 0.05 | 98 | 1010.4 |
| 20260505082640 | 41 | 254 | 0.0 | 1.0 | 0.12 | 0.04 | 0.04 | 98 | 1010.2 |
| 20260505082137 | 41 | 106 | 0.0 | 0.0 | 0.12 | 0.03 | 0.03 | 98 | 1010.5 |
| 20260505081633 | 41 | 106 | 0.0 | 0.0 | 0.12 | 0.02 | 0.02 | 98 | 1010.8 |
| 20260505081131 | 41 | 106 | 0.0 | 0.0 | 0.07 | 0.01 | 0.01 | 98 | 1010.5 |
| 20260505080627 | 41 | 106 | 0.0 | 0.0 | 0.00 | 0.00 | 0.00 | 98 | 1010.9 |
| 20260505080123 | 41 | 106 | 0.0 | 0.0 | 0.00 | 0.00 | 0.00 | 98 | 1010.9 |
| 20260505075620 | 41 | 106 | 0.0 | 0.0 | 0.00 | 0.00 | 0.00 | 98 | 1010.9 |
| 20260505075116 | 41 | 106 | 0.0 | 0.0 | 0.00 | 0.00 | 0.00 | 98 | 1010.5 |
| 20260505074613 | 41 | 106 | 0.0 | 0.0 | 0.00 | 0.00 | 0.00 | 98 | 1010.8 |
| 20260505074110 | 41 | 106 | 0.0 | 0.0 | 0.00 | 0.00 | 0.00 | 98 | 1010.8 |
| 20260505073608 | 41 | 106 | 0.0 | 0.0 | 0.00 | 0.00 | 0.00 | 98 | 1010.6 |
| 20260505073106 | 41 | 106 | 0.0 | 0.0 | 0.00 | 0.00 | 0.00 | 98 | 1010.4 |
| 20260505072601 | 41 | 106 | 0.0 | 0.0 | 0.00 | 0.00 | 0.00 | 98 | 1010.4 |
| 20260505072058 | 41 | 106 | 0.0 | 0.0 | 0.00 | 0.00 | 0.00 | 98 | 1010.1 |
| 20260505071553 | 41 | 106 | 0.0 | 0.0 | 0.00 | 0.00 | 0.00 | 98 | 1010.5 |